Content
SEND FEEDBACK

Daily
Averages
Monthly
Summary
United States of America

MAURICEVILLE, TEXAS


Home > North America > United States > Texas
Elevation: 20 feet     Latitude: 30 14N     Longitude: 093 44W

WEATHER
 
SELECT A DAY
Number of Records: 115,495;   Date Range: 8/25/05 - 10/23/14
 
SHARE

PRINT THIS DATA

[ ← Previous Day ]
WEATHER ALMANAC - MAY 1, 2013
[ Next Day → ]
[ °C ]   °F
Weather ElementAverageHighLow
Temperature70.2 °F81 °F (2:35 pm) (11:15 am)
Dewpoint65 °F70.5 °F (6:55 pm) (7:00 pm)
Humidity84.5 %97 % (11:55 pm)57 % (3:15 pm)
Barometer29.42 in29.91 in (10:35 am) (7:00 pm)
Wind Speed0.3 mph10.4 mph (4:15 pm)
Wind Gust16.1 mph (4:15 pm)
Weather ElementAverage
Visibility8.7 mi
Wind DirectionNNE (8.5 °)

Weather ElementTotal
Precipitation0.85 in
Heating Degree Days24.5 (Base 65)
Averaged from 67 records on May 1, 2013
WEATHER CONDITIONS BREAKOUT
WIND DIRECTION BREAKOUT
WEATHER BY HOUR - MAY 1, 2013
[ °C ]   °F
Local TimeTemperatureDewpointHumidityBarometerVisibilityWind DirectionWind SpeedGust SpeedPrecipitationEventsConditions
12:35 AM70.0 °F67.5 °F92 %29.85 in10.0 miCalmOvercast
12:55 AM68.2 °F66.4 °F94 %29.84 in10.0 miCalmScattered Clouds
1:15 AM68.0 °F66.4 °F95 %29.84 in10.0 miCalmRainRain
1:35 AM68.0 °F66.6 °F95 %29.83 in5.0 miCalm0.02 inRainLight Rain
1:55 AM69.6 °F68.0 °F95 %29.83 in10.0 miCalm0.02 inOvercast
2:15 AM69.8 °F67.1 °F91 %29.83 in10.0 miCalmMostly Cloudy
2:35 AM69.4 °F67.1 °F92 %29.83 in10.0 miCalmMostly Cloudy
2:55 AM68.2 °F67.1 °F96 %29.83 in7.0 miCalmOvercast
3:15 AM68.9 °F67.5 °F95 %29.83 in7.0 miCalmOvercast
3:35 AM68.9 °F67.6 °F96 %29.82 in7.0 miCalmOvercast
3:55 AM68.9 °F67.5 °F95 %29.83 in7.0 miCalmOvercast
4:15 AM68.9 °F67.8 °F96 %29.83 in7.0 miCalmOvercast
4:35 AM68.9 °F67.5 °F95 %29.83 in7.0 miCalmRainRain
4:55 AM68.9 °F67.5 °F95 %29.84 in10.0 miCalmOvercast
5:15 AM68.5 °F67.3 °F96 %29.84 in7.0 miCalmOvercast
5:35 AM68.5 °F67.3 °F96 %29.84 in7.0 miCalm0.01 inOvercast
5:55 AM68.5 °F67.3 °F96 %29.85 in7.0 miCalm0.01 inOvercast
6:15 AM68.5 °F67.3 °F96 %29.85 in7.0 miCalmThunderstormOvercast
6:35 AM68.4 °F67.1 °F96 %29.86 in7.0 miCalmThunderstormThunderstorm
6:55 AM68.0 °F66.6 °F95 %29.87 in7.0 miCalmThunderstormOvercast
7:15 AM68.0 °F66.4 °F95 %29.87 in7.0 miCalmRain-ThunderstormLight Thunderstorms and Rain
7:35 AM67.8 °F66.4 °F95 %29.88 in1.2 miCalm0.25 inRain-ThunderstormHeavy Thunderstorms and Rain
7:55 AM67.1 °F65.7 °F95 %29.89 in4.0 miCalm0.31 inRainRain
8:15 AM67.1 °F65.5 °F95 %29.89 in10.0 miCalm0.01 inThunderstorm
8:35 AM67.1 °F65.5 °F95 %29.90 in10.0 miCalm0.01 inOvercast
8:55 AM67.1 °F64.8 °F92 %29.90 in10.0 miCalm0.01 inThunderstormOvercast
9:15 AM68.2 °F66.2 °F93 %29.90 in10.0 miCalmOvercast
9:35 AM69.3 °F67.1 °F93 %29.90 in10.0 miCalmMostly Cloudy
9:55 AM70.7 °F68.0 °F91 %29.90 in10.0 miCalmMostly Cloudy
10:15 AM72.1 °F67.6 °F86 %29.90 in10.0 miCalmOvercast
10:35 AM73.2 °F67.3 °F82 %29.91 in10.0 miCalmScattered Clouds
10:55 AM73.8 °F67.1 °F80 %29.91 in10.0 miNorthMostly Cloudy
11:15 AM0.0 °F0.0 °F29.91 in10.0 miNorthMostly Cloudy
11:35 AM75.0 °F66.0 °F73 %29.91 in10.0 miCalmOvercast
11:55 AM76.3 °F66.7 °F72 %29.91 in10.0 miNorthMostly Cloudy
12:15 PM76.5 °F66.7 °F72 %29.89 in10.0 miCalmScattered Clouds
12:35 PM76.5 °F66.2 °F70 %29.89 in10.0 miCalmClear
12:55 PM78.6 °F67.3 °F68 %29.89 in10.0 miSSW (210°)5.8 mphScattered Clouds
1:15 PM78.3 °F66.6 °F67 %29.88 in10.0 miCalmOvercast
1:35 PM79.5 °F66.4 °F64 %29.87 in10.0 miCalmScattered Clouds
1:55 PM79.7 °F64.9 °F61 %29.87 in10.0 miCalmScattered Clouds
2:15 PM79.9 °F64.4 °F59 %29.87 in10.0 miCalmScattered Clouds
2:35 PM81.0 °F64.8 °F58 %29.86 in10.0 miCalmScattered Clouds
2:55 PM80.6 °F64.4 °F58 %29.86 in10.0 miCalmScattered Clouds
3:15 PM80.6 °F63.9 °F57 %29.85 in10.0 miCalmMostly Cloudy
3:35 PM80.8 °F65.3 °F59 %29.85 in10.0 miCalmMostly Cloudy
4:15 PM75.7 °F67.8 °F76 %29.86 in10.0 miNorth (360°)10.4 mph16.1 mphRainLight Rain
4:35 PM72.5 °F69.1 °F89 %29.85 in5.0 miCalm0.01 inRainLight Rain
4:55 PM73.2 °F69.3 °F87 %29.85 in10.0 miCalm0.01 inThunderstormOvercast
5:15 PM77.7 °F69.8 °F76 %29.85 in10.0 miCalmScattered Clouds
5:35 PM77.7 °F68.0 °F72 %29.84 in10.0 miCalmClear
6:15 PM78.4 °F67.5 °F69 %29.85 in10.0 miCalmScattered Clouds
6:35 PM78.3 °F67.5 °F69 %29.85 in10.0 miCalmClear
6:55 PM76.8 °F70.5 °F81 %29.85 in10.0 miCalmScattered Clouds
7:15 PM77.5 °F68.4 °F73 %29.86 in10.0 miCalmScattered Clouds
7:35 PM77.0 °F67.8 °F73 %29.85 in10.0 miCalmClear
7:55 PM75.0 °F68.0 °F79 %29.86 in10.0 miCalmClear
8:35 PM73.6 °F68.4 °F84 %29.86 in10.0 miCalmScattered Clouds
8:55 PM73.8 °F68.2 °F83 %29.87 in10.0 miCalmThunderstormThunderstorm
9:35 PM71.6 °F68.2 °F89 %29.89 in7.0 miCalm0.09 inRainLight Rain
9:55 PM71.2 °F68.2 °F90 %29.90 in10.0 miCalm0.09 inOvercast
10:15 PM70.2 °F68.4 °F94 %29.90 in10.0 miNorthOvercast
10:35 PM0.0 °F0.0 °F10.0 miNorthScattered Clouds
10:55 PM69.1 °F67.1 °F93 %29.90 in10.0 miCalmScattered Clouds
11:15 PM68.4 °F67.1 °F96 %29.90 in5.0 miCalmScattered Clouds
11:35 PM67.3 °F66.2 °F96 %29.90 in3.0 miCalmClear
11:55 PM67.3 °F66.4 °F97 %29.90 in4.0 miCalmScattered Clouds
Hourly data recorded from KORG, located miles away from Mauriceville, Texas







STORIES FROM OUR PARTNERS